Regional Weather Roundup
Issued by NWS

Home | Current Version | Previous Version | Text Only | Print | Product List | Glossary Off
Versions: 1 2 3 4 5 6 7 8 9 10 11 12 13 14 15 16 17 18 19 20 21 22 23 24 25 26 27 28 29 30 31 32 33 34 35 36 37 38 39 40 41 42 43 44 45 46 47 48 49 50

504
ASUS43 KDTX 101001
RWRMI
MICHIGAN HOURLY REGIONAL WEATHER ROUNDUP
NATIONAL WEATHER SERVICE DETROIT/PONTIAC MI
500 AM EST WED FEB 10 2016

NOTE: "FAIR" INDICATES FEW OR NO CLOUDS BELOW 12,000 FEET WITH NO
SIGNIFICANT WEATHER AND/OR OBSTRUCTION TO VISIBILITY.

MIZ047>049-052>055-059>063-066>070-074>076-081>083-101100-
SOUTHEAST LOWER MICHIGAN

CITY           SKY/WX    TMP DP  RH WIND       PRES   REMARKS
ADRIAN         CLOUDY    22  13  68 NW13G21   29.76R WCI  10
ALMA           FLURRIES  20  15  81 W12       29.76R WCI   8
ANN ARBOR      FLURRIES  21  14  74 W13       29.73R WCI   9
BAD AXE        LGT SNOW  19  16  89 NW12      29.68R WCI   6
CARO           CLOUDY    19  14  79 NW10      29.70R WCI   8
DETROIT CITY   LGT SNOW  23  14  68 W10G16    29.72R WCI  12
DETROIT        FLURRIES  23  14  68 W12G21    29.74R WCI  12
FLINT          LGT SNOW  22  16  78 W16       29.71S WCI   8
GROSSE ILE     CLOUDY    25  16  68 W13       29.72S WCI  13
HILLSDALE      FLURRIES  18  13  80 W14       29.75R WCI   4
HOWELL         CLOUDY    20  14  79 W12G21    29.72R WCI   8

CITY           SKY/WX    TMP DP  RH WIND       PRES   REMARKS
JACKSON        CLOUDY    18  12  77 W10       29.75S HAZE    WCI   6
LAMBERTVILLE   CLOUDY    22  18  83 W6        29.76S WCI  15
LANSING        FLURRIES  18  13  80 W15       29.76R WCI   4
LAPEER         FLURRIES  20  15  82 W8        29.69R WCI  10
MASON          FLURRIES  18  14  82 W12       29.75R WCI   6
MONROE         CLOUDY    24  16  71 W15G22    29.74S WCI  11
MT. CLEMENS    FLURRIES  21  18  86 W12       29.69R WCI   9
PONTIAC        FLURRIES  20  14  77 W13       29.69R WCI   7
PORT HOPE        N/A     22  18  85 NW18G26   29.65R WCI   7
PORT HURON     LGT SNOW  19  18  93 W6        29.69R WCI  11
TRI CITIES     LGT SNOW  20  12  71 NW13      29.73R WCI   7
MIDLAND        LGT SNOW  18  13  80 NW6       29.73R WCI  10
TROY           FLURRIES  23  17  77 W8        29.73R WCI  14
SAGINAW HB     FLURRIES  21  16  79 NW16G22   29.72R WCI   7
$$
MIZ043>046-050>051-056>058-064>065-071>073-077>080-101100-
SOUTHWEST LOWER MICHIGAN

CITY           SKY/WX    TMP DP  RH WIND       PRES   REMARKS
BATTLE CREEK   CLOUDY    18  13  80 W9        29.79S WCI   7
BENTON HARBOR  CLOUDY    21  12  68 NW14G24   29.86S HAZE    WCI   8
BIG RAPIDS     FLURRIES  17  12  82 NW8       29.76R WCI   6
COLDWATER      CLOUDY    19  13  80 NW9       29.79R WCI   7
FREMONT        CLOUDY    18  12  79 NW15      29.80S WCI   3
HOLLAND        LGT SNOW  20  16  84 NW12      29.84R VSB 1   WCI   8
GRAND RAPIDS   LGT SNOW  19  14  81 W16       29.80R WCI   4
IONIA          LGT SNOW  19  14  82 W15       29.76S WCI   4
KALAMAZOO      CLOUDY    19  12  74 NW10      29.81R WCI   7
LUDINGTON      LGT SNOW  17  12  79 NW15G24   29.84S WCI   3
MARSHALL       CLOUDY    19  11  73 W13G18    29.77S WCI   5
MOUNT PLEASANT LGT SNOW  19  12  75 NW6       29.74R WCI  11
MUSKEGON       LGT SNOW  19  12  74 NW16      29.85R WCI   4
SOUTH HAVEN    LGT SNOW  21  16  79 NW18G28   29.85R WCI   6
$$
MIZ016>042-101100-
NORTHERN LOWER MICHIGAN

CITY           SKY/WX    TMP DP  RH WIND       PRES   REMARKS
ALPENA         LGT SNOW  13   8  81 NW12      29.71R WCI  -1
BEAVER ISLAND  CLOUDY    13   6  73 NW14G21   29.80S HAZE    WCI  -2
BELLAIRE       LGT SNOW  14   9  81 N8        29.80R WCI   2
CADILLAC       FLURRIES  14   8  76 NW12G22   29.71S WCI   1
CHARLEVOIX     CLOUDY    15   7  73 N17G25    29.81S HAZE    WCI  -2
FRANKFORT      LGT SNOW  17  11  78 N14G25    29.82S WCI   3
GAYLORD        LGT SNOW   9   2  73 NW9G22    29.70R WCI  -4
GRAYLING       LGT SNOW  11   5  76 NW12G18   29.73R WCI  -3
HARBOR SPRINGS LGT SNOW  10   4  78 NW3       29.78R
HOUGHTON LAKE  LGT SNOW  12   6  77 NW12      29.72R WCI  -2
MANISTEE       CLOUDY    18   9  68 NW16G24   29.82S WCI   3
OSCODA         LGT SNOW  15  11  83 MISG      29.70R
PELLSTON       LGT SNOW   8   2  76 NW10      29.79R WCI  -6
ROGERS CITY    LGT SNOW  11   7  82 NW12G18   29.74R WCI  -3
TRAVERSE CITY  LGT SNOW  17   8  67 N13G23    29.79S WCI   4
$$
MIZ007>008-015-101100-
EASTERN UPPER MICHIGAN

CITY           SKY/WX    TMP DP  RH WIND       PRES   REMARKS
KINROSS        CLOUDY     3   0  85 N13G18    29.77R WCI -14
MACKINAC ISLAN LGT SNOW   6   2  82 N15G22    29.77R WCI -11
NEWBERRY       LGT SNOW   8   5  86 N13       29.79R WCI  -8
S. S. MARIE    LGT SNOW   3  -5  69 N12       29.78R WCI -13
$$
MIZ004>006-011>014-085-101100-
CENTRAL UPPER MICHIGAN

CITY           SKY/WX    TMP DP  RH WIND       PRES   REMARKS
MANISTIQUE     MOCLDY     9   5  84 N3        29.82S
ESCANABA       PTCLDY     7   0  72 NW14      29.88S WCI -10
MENOMINEE      CLEAR      7  -6  56 NW9       29.93R WCI  -7
SAWYER-GWINN   LGT SNOW   6   2  85 N17G24    29.84S WCI -13
$$
MIZ001>003-009>011-084-101100-
WESTERN UPPER MICHIGAN

CITY           SKY/WX    TMP DP  RH WIND       PRES   REMARKS
IRON MOUNTAIN  MOCLDY     4  -6  63 NW13      29.90S WCI -13
HOUGHTON       HAZE       4  -2  76 N15       29.94S VSB 3/4 WCI -14
COPPER HARBOR    N/A     11   7  84 NE25G32   29.95F WCI -10
IRONWOOD       CLOUDY     7   3  85 N6        29.95S WCI  -3
$$

ABBREVIATIONS USED IN REMARKS
   TC - TEMPERATURE IN CELSIUS
  WCI - WIND CHILL INDEX
   HX - HEAT INDEX
  VSB - VISIBILITY





USA.gov is the U.S. government's official web portal to all federal, state and local government web resources and services.